This demonstration page uses our WeatherBlox Daily Observations layout. Learn more.

Left ArrowRight Arrow

38.20091, -84.87328

Hourly Observations for May 26, 2022

Temp ( °F °C ) Dew Point ( °F °C ) Humidity (%) Winds ( mph kmh ) Pressure ( in mb ) Visibility ( mi km ) Precip ( " mm )
12:53 am 00:53 Mostly Cloudy 74 23.3 62 16.7 67 67 S 14 22 29.95 1014 10 16 0.00 0.00
1:53 am 01:53 Cloudy 73 22.8 62 16.7 69 69 SSE 7 11 29.94 1014 10 16 0.00 0.00
2:53 am 02:53 Cloudy 72 22.2 62 16.7 71 71 SSE 7 11 29.93 1014 10 16 0.00 0.00
3:53 am 03:53 Mostly Cloudy 72 22.2 63 17.2 73 73 S 10 17 29.93 1014 10 16 0.00 0.00
4:53 am 04:53 Mostly Cloudy 71 21.7 64 17.8 79 79 S 13 20 29.93 1014 10 16 0.00 0.00
5:53 am 05:53 Mostly Cloudy 70 21.1 65 18.3 84 84 SSE 8 13 29.93 1014 10 16 0.00 0.00
6:35 am 06:35 Cloudy 69 20.6 66 18.9 90 90 SSE 9 15 29.94 1014 10 16 0.04 1.02
6:53 am 06:53 Cloudy 69 20.6 66 18.9 90 90 SSE 8 13 29.94 1014 10 16 0.04 1.02
7:08 am 07:08 Cloudy with Rain 69 20.6 66 18.9 90 90 SSE 10 17 29.94 1014 5 8 0.02 0.51
7:13 am 07:13 Cloudy with Rain 69 20.6 66 18.9 90 90 SSE 10 17 29.94 1014 3 4 0.04 1.02
7:22 am 07:22 Cloudy with Light Rain 68 20 66 18.9 93 93 SSE 9 15 29.94 1014 4 6 0.04 1.02
7:27 am 07:27 Cloudy with Heavy Rain 68 20 66 18.9 93 93 SSE 9 15 29.95 1014 3 4 0.09 2.29
7:29 am 07:29 Cloudy with Heavy Rain 68 20 66 18.9 93 93 SSE 8 13 29.95 1014 2 2 0.12 3.05
7:32 am 07:32 Cloudy with Heavy Rain 68 20 66 18.9 93 93 S 8 13 29.95 1014 1 2 0.15 3.81
7:36 am 07:36 Cloudy with Rain 68 20 66 18.9 93 93 S 7 11 29.95 1014 1 2 0.16 4.06
7:45 am 07:45 Cloudy with Light Rain 68 20 66 18.9 93 93 SSE 12 19 29.95 1014 3 5 0.17 4.32
7:53 am 07:53 Cloudy with Light Rain 68 20 66 18.9 93 93 SSE 13 20 29.95 1014 10 16 0.17 4.32
8:00 am 08:00 Cloudy with Light Rain 68 20 65 18.3 90 90 SSE 12 19 29.95 1014 7 11 0.00 0.00
8:12 am 08:12 Cloudy with Light Rain 68 20 65 18.3 90 90 SSE 12 19 29.95 1014 8 13 0.00 0.00
8:26 am 08:26 Cloudy 68 20 65 18.3 90 90 SE 12 19 29.95 1014 9 14 0.00 0.00
8:53 am 08:53 Cloudy 68 20 65 18.3 90 90 SE 10 17 29.94 1014 10 16 0.00 0.00
9:53 am 09:53 Cloudy 70 21.1 65 18.3 84 84 SSE 13 20 29.94 1014 10 16 0.00 0.00
10:53 am 10:53 Cloudy 72 22.2 66 18.9 82 82 SSE 14 22 29.93 1013 10 16 0.00 0.00
11:21 am 11:21 Mostly Cloudy 73 22.8 67 19.4 81 81 SSE 14 22 29.91 1013 10 16 0.00 0.00
11:53 am 11:53 Cloudy with Light Rain 72 22.2 66 18.9 82 82 SSE 16 26 29.91 1013 4 6 0.01 0.25
12:23 pm 12:23 Cloudy 71 21.7 67 19.4 87 87 SSE 12 19 29.91 1013 10 16 0.01 0.25
12:53 pm 12:53 Cloudy 74 23.3 68 20 82 82 SSE 10 17 29.89 1012 10 16 0.01 0.25
1:34 pm 13:34 Cloudy 73 22.8 68 20 84 84 S 9 15 29.87 1012 9 14 0.01 0.25
1:53 pm 13:53 Cloudy 68 20 63 17.2 84 84 VRB 5 7 29.87 1012 10 16 0.01 0.25
2:53 pm 14:53 Mostly Cloudy 75 23.9 63 17.2 66 66 S 12 19 29.86 1011 10 16 0.00 0.00
3:53 pm 15:53 Cloudy 74 23.3 63 17.2 69 69 SSW 10 17 29.85 1011 10 16 0.00 0.00
4:07 pm 16:07 Cloudy with Heavy Rain 71 21.7 65 18.3 81 81 SSW 8 13 29.86 1011 2 3 0.07 1.78
4:10 pm 16:10 Cloudy with Heavy Rain 70 21.1 65 18.3 84 84 SW 7 11 29.86 1011 1 2 0.12 3.05
4:18 pm 16:18 Cloudy with Heavy Rain 69 20.6 65 18.3 87 87 S 14 22 29.87 1011 1 1 0.30 7.62
4:25 pm 16:25 Cloudy with Heavy Rain 68 20 65 18.3 90 90 S 8 13 29.86 1011 1 1 0.43 10.92
4:30 pm 16:30 Cloudy with Light Rain 68 20 65 18.3 90 90 S 8 13 29.86 1011 2 2 0.43 10.92
4:32 pm 16:32 Cloudy with Light Rain 68 20 65 18.3 90 90 S 10 17 29.86 1011 3 5 0.44 11.18
4:45 pm 16:45 Cloudy with Heavy Rain 68 20 65 18.3 90 90 SSW 8 13 29.85 1011 3 4 0.49 12.45
4:53 pm 16:53 Cloudy with Rain 68 20 65 18.3 90 90 SSW 9 15 29.85 1011 4 6 0.51 12.95
5:53 pm 17:53 Mostly Cloudy 69 20.6 65 18.3 87 87 S 9 15 29.83 1010 10 16 0.07 1.78
6:53 pm 18:53 Cloudy 67 19.4 63 17.2 87 87 S 10 17 29.80 1009 10 16 0.01 0.25
7:53 pm 19:53 Cloudy 66 18.9 61 16.1 84 84 SSE 10 17 29.79 1009 10 16 0.00 0.00
8:53 pm 20:53 Mostly Clear 66 18.9 61 16.1 84 84 S 8 13 29.80 1009 10 16 0.00 0.00
9:53 pm 21:53 Mostly Clear 64 17.8 61 16.1 90 90 SSE 7 11 29.81 1010 10 16 0.00 0.00
10:53 pm 22:53 Clear 64 17.8 61 16.1 90 90 SSE 7 11 29.81 1009 10 16 0.00 0.00
11:53 pm 23:53 Mostly Clear 65 18.3 61 16.1 87 87 SSW 9 15 29.82 1010 10 16 0.00 0.00

Powered by AerisWeather